Regional Weather Roundup
Issued by NWS

Home | Current Version | Previous Version | Text Only | Print | Product List | Glossary Off
Versions: 1 2 3 4 5 6 7 8 9 10 11 12 13 14 15 16 17 18 19 20 21 22 23 24 25 26 27 28 29 30 31 32 33 34 35 36 37 38 39 40 41 42 43 44 45 46 47 48 49 50

000
ASUS45 KBOU 261807
RWRCO

WEATHER ROUNDUP FOR COLORADO
NATIONAL WEATHER SERVICE DENVER/BOULDER CO
1200 PM MDT TUE MAY 26 2015

NOTE: "FAIR" INDICATES FEW OR NO CLOUDS BELOW 12000 FEET WITH NO
SIGNIFICANT WEATHER AND/OR OBSTRUCTIONS TO VISIBILITY.

COZ001>005-013-030-031-261900-
...NORTHWEST COLORADO...

CITY           SKY/WX    TMP DP  RH WIND       PRES   REMARKS
CRAIG          MOSUNNY   61  44  53 VRB3      30.09F
HAYDEN         MOSUNNY   57  39  51 NE5       30.11F
MEEKER         LGT RAIN  54  42  64 SW14G28   30.11R
MOUNT WERNER   NOT AVBL
STEAMBOAT SPGS PTSUNNY   56  42  58 S3        30.12F
WALDEN         MOSUNNY   55  32  41 W6        30.14F
$$

COZ006>008-011-261900-
...WEST CENTRAL VALLEYS...

CITY           SKY/WX    TMP DP  RH WIND       PRES   REMARKS
GRAND JUNCTION PTSUNNY   67  44  43 SE8       30.04F
MONTROSE       PTSUNNY   68  38  33 CALM      30.10F
EAGLE          MOSUNNY   57  45  62 VRB7      30.15F
RIFLE          MOSUNNY   64  45  49 VRB3      30.08F
DELTA          PTSUNNY   71  41  33 MISG      30.08S
NUCLA          PTSUNNY   66  41  39 W7        30.14F
$$

COZ017>023-064>068-261900-
...SOUTHWEST COLORADO...

CITY           SKY/WX    TMP DP  RH WIND       PRES   REMARKS
DURANGO        MOSUNNY   62  41  46 VRB3      30.17F
CORTEZ         CLOUDY    64  43  46 W5        30.14S
PAGOSA SPRINGS PTSUNNY   58  35  42 SW8       30.21F
TELLURIDE      NOT AVBL
WOLF CREEK PAS NOT AVBL
$$

COZ009-010-012-014-032>034-037-058>063-261900-
...CENTRAL COLORADO...

CITY           SKY/WX    TMP DP  RH WIND       PRES   REMARKS
ASPEN          PTSUNNY   55  37  50 N7        30.16F
BUENA VISTA    MOSUNNY   59  29  32 CALM      30.16S
COPPER MTN     CLOUDY    34  30  86 W13G18    30.36R WCI  25
BERTHOUD PASS  PTSUNNY   28  21  74 NW20G30   30.34R THUNDER WCI  15
COTTONWOOD PAS PTSUNNY   55  23  28 N3        30.25S
GUNNISON       PTSUNNY   54  34  47 N3        30.21F
KREMMLING      CLOUDY    52  39  62 N9        30.17S
LEADVILLE      CLOUDY    43  32  65 N12G21    30.26R
MONARCH PASS   PTSUNNY   34  30  86 SW17G29   30.45S WCI  23
SALIDA         MOSUNNY   66  31  26 SW9G21    30.21F
SUNLIGHT       PTSUNNY   43  37  81 CALM      30.33S THUNDER
WILKERSON PASS PTSUNNY   46  28  49 SW5       30.33S
$$

COZ069>075-261900-
...SAN LUIS VALLEY/SANGRE DE CRISTO MOUNTAINS...

CITY           SKY/WX    TMP DP  RH WIND       PRES   REMARKS
ALAMOSA        MOSUNNY   59  31  34 MISG      30.18F
LA VETA PASS   PTSUNNY  N/A N/A N/A MISG      30.29S
SAGUACHE       MOSUNNY   57  36  44 SW10      30.19F
$$

COZ035-036-038>040-261900-
...NORTHERN COLORADO FRONT RANGE...

CITY           SKY/WX    TMP DP  RH WIND       PRES   REMARKS
DENVER INTL AP MOSUNNY   66  41  40 VRB3      30.05F
DMNS CITY PARK   N/A     67  38  34 NE3G10    30.04S
AURORA         NOT AVBL
FRONT RANGE AP MOSUNNY   66  43  42 SW7       30.07S
ERIE MUNI ARPT   N/A     68  42  38 CALM      30.03F
BOULDER MUN AP MOSUNNY   64  41  42 CALM      30.03F
CENTENNIAL     MOSUNNY   64  40  41 E8        30.07S
BROOMFIELD     MOSUNNY   66  41  39 SE6       30.06F
FORT COLLINS   MOSUNNY   64  48  55 SE8       30.05S
LONGMONT       MOSUNNY   70  47  44 E5        30.04F
$$

COZ041-046-047-076>085-087-088-261900-
...PIKES PEAK/PALMER DIVIDE AND SOUTHERN FOOTHILLS...

CITY           SKY/WX    TMP DP  RH WIND       PRES   REMARKS
COLO. SPRINGS  PTSUNNY   60  43  53 S8        30.12R
A. F. ACADEMY  NOT AVBL
ELLICOTT       PTSUNNY    1  32 100 SW9       30.10S WCI -14
FALCON         CLOUDY    61  41  46 S9        30.14F
FORT CARSON    NOT AVBL
LIMON          CLOUDY    61  44  53 VRB3      30.09S
MONUMENT HILL  NOT AVBL
TRINIDAD       MOSUNNY   65  46  50 VRB6      30.10S
$$

COZ042>045-048>051-090-091-261900-
...NORTHEAST COLORADO...

CITY           SKY/WX    TMP DP  RH WIND       PRES   REMARKS
GREELEY ARPT   SUNNY     68  48  49 S8        30.04F
AKRON          MOSUNNY   65  48  54 VRB5      30.05S
BURLINGTON     MOSUNNY   66  48  52 W6        30.04S
WRAY           MOSUNNY   68  50  53 N10       30.03S
STERLING       MOSUNNY   64  50  59 N3        30.02F
HOLYOKE        NOT AVBL
FORT MORGAN    MOSUNNY   65  47  52 S8        30.05F
$$

COZ086-089-092>099-261900-
...SOUTHEAST COLORADO...

CITY           SKY/WX    TMP DP  RH WIND       PRES   REMARKS
PUEBLO         MOSUNNY   66  49  54 E9        30.05F
LA JUNTA       SUNNY     68  45  43 S5        30.05F
LAMAR          SUNNY     69  49  48 VRB3      30.02F
SPRINGFIELD      N/A     68  47  46 NE5       30.04F
$$


USA.gov is the U.S. government's official web portal to all federal, state and local government web resources and services.